• In Czech Republic
  • List of Countries
  • For 7 days
  • Water Temperature
  • Satellite Maps
  • Weather Map
  • Weather Widgets
  • user-avatar
    Login

    Hourly Weather Konstantyna

    Today, 21 November, Tuesday

    Time Temperature Precipitation Wind Pressure Humidity
    00:00 +11°C° 0 mm 1 mps 714 mmHg 41%
    01:00 +10°C° 0 mm 1 mps 713 mmHg 40%
    02:00 +10°C° 0 mm 1 mps 713 mmHg 39%
    03:00 +10°C° 0 mm 1 mps 713 mmHg 39%
    04:00 +10°C° 0 mm 1 mps 713 mmHg 39%
    05:00 +9°C° 0 mm 1 mps 713 mmHg 39%
    06:00 +9°C° 0 mm 1 mps 713 mmHg 38%
    07:00 +11°C° 0 mm 1 mps 714 mmHg 36%
    08:00 +13°C° 0 mm 1 mps 714 mmHg 33%
    09:00 +15°C° 0 mm 1 mps 714 mmHg 30%
    10:00 +16°C° 0 mm 1 mps 714 mmHg 28%
    11:00 +19°C° 0 mm 1 mps 714 mmHg 26%
    12:00 +20°C° 0 mm 1 mps 714 mmHg 24%
    13:00 +20°C° 0 mm 1 mps 714 mmHg 27%
    14:00 +20°C° 0 mm 1 mps 714 mmHg 29%
    15:00 +19°C° 0 mm 1 mps 714 mmHg 31%
    16:00 +16°C° 0 mm 1 mps 713 mmHg 37%
    17:00 +14°C° 0 mm 1 mps 713 mmHg 43%
    18:00 +12°C° 0 mm 1 mps 713 mmHg 49%
    19:00 +12°C° 0 mm 1 mps 713 mmHg 49%
    20:00 +12°C° 0 mm 1 mps 713 mmHg 49%
    21:00 +11°C° 0 mm 1 mps 713 mmHg 49%
    22:00 +11°C° 0 mm 1 mps 713 mmHg 47%
    23:00 +11°C° 0 mm 1 mps 712 mmHg 45%

    Tomorrow, 22 November, Wednesday

    Time Temperature Precipitation Wind Pressure Humidity
    00:00 +11°C° 0 mm 1 mps 712 mmHg 43%
    01:00 +11°C° 0 mm 1 mps 712 mmHg 42%
    02:00 +10°C° 0 mm 1 mps 712 mmHg 41%
    03:00 +10°C° 0 mm 1 mps 711 mmHg 39%
    04:00 +10°C° 0 mm 1 mps 711 mmHg 39%
    05:00 +9°C° 0 mm 2 mps 711 mmHg 38%
    06:00 +9°C° 0 mm 2 mps 711 mmHg 37%
    07:00 +12°C° 0 mm 2 mps 711 mmHg 36%
    08:00 +14°C° 0 mm 2 mps 712 mmHg 34%
    09:00 +16°C° 0 mm 1 mps 712 mmHg 32%
    10:00 +17°C° 0 mm 2 mps 712 mmHg 29%
    11:00 +18°C° 0 mm 2 mps 712 mmHg 26%
    12:00 +19°C° 0 mm 2 mps 712 mmHg 23%
    13:00 +19°C° 0 mm 2 mps 711 mmHg 25%
    14:00 +20°C° 0 mm 1 mps 711 mmHg 27%
    15:00 +20°C° 0 mm 1 mps 711 mmHg 28%
    16:00 +18°C° 0 mm 1 mps 711 mmHg 30%
    17:00 +16°C° 0 mm 1 mps 711 mmHg 31%
    18:00 +15°C° 0 mm 1 mps 711 mmHg 33%
    19:00 +14°C° 0 mm 1 mps 711 mmHg 33%
    20:00 +14°C° 0 mm 1 mps 711 mmHg 33%
    21:00 +13°C° 0 mm 1 mps 711 mmHg 34%
    22:00 +13°C° 0 mm 2 mps 711 mmHg 34%
    23:00 +12°C° 0 mm 2 mps 710 mmHg 35%

    Day after tomorrow, 23 November, Thursday

    Time Temperature Precipitation Wind Pressure Humidity
    00:00 +12°C° 0 mm 2 mps 710 mmHg 35%
    01:00 +12°C° 0 mm 2 mps 710 mmHg 36%
    02:00 +10°C° 0 mm 2 mps 710 mmHg 37%
    03:00 +10°C° 0 mm 2 mps 710 mmHg 38%
    04:00 +10°C° 0 mm 2 mps 710 mmHg 39%
    05:00 +11°C° 0 mm 1 mps 710 mmHg 40%
    06:00 +10°C° 0 mm 1 mps 710 mmHg 41%
    07:00 +12°C° 0 mm 1 mps 711 mmHg 38%
    08:00 +14°C° 0 mm 1 mps 712 mmHg 35%
    09:00 +15°C° 0 mm 1 mps 712 mmHg 33%
    10:00 +16°C° 0 mm 1 mps 712 mmHg 31%
    11:00 +18°C° 0 mm 1 mps 712 mmHg 29%
    12:00 +19°C° 0 mm 1 mps 712 mmHg 27%
    13:00 +19°C° 0 mm 1 mps 712 mmHg 29%
    14:00 +19°C° 0 mm 1 mps 712 mmHg 32%
    15:00 +17°C° 0 mm 2 mps 712 mmHg 34%
    16:00 +16°C° 0 mm 1 mps 712 mmHg 39%
    17:00 +15°C° 0 mm 1 mps 712 mmHg 44%
    18:00 +13°C° 0 mm 1 mps 713 mmHg 49%
    19:00 +13°C° 0 mm 1 mps 713 mmHg 50%
    20:00 +12°C° 0 mm 1 mps 713 mmHg 51%
    21:00 +12°C° 0 mm 1 mps 713 mmHg 52%
    22:00 +11°C° 0 mm 1 mps 713 mmHg 51%
    23:00 +11°C° 0 mm 1 mps 713 mmHg 51%

    24 November, Friday

    Time Temperature Precipitation Wind Pressure Humidity
    00:00 +11°C° 0 mm 1 mps 713 mmHg 51%
    01:00 +10°C° 0 mm 1 mps 713 mmHg 51%
    02:00 +10°C° 0 mm 1 mps 713 mmHg 51%
    03:00 +10°C° 0 mm 1 mps 712 mmHg 50%
    04:00 +10°C° 0 mm 1 mps 712 mmHg 50%
    05:00 +10°C° 0 mm 1 mps 713 mmHg 50%
    06:00 +10°C° 0 mm 1 mps 713 mmHg 51%
    07:00 +12°C° 0 mm 1 mps 713 mmHg 46%
    08:00 +14°C° 0 mm 1 mps 714 mmHg 42%
    09:00 +16°C° 0 mm 1 mps 715 mmHg 37%
    10:00 +18°C° 0 mm 1 mps 714 mmHg 35%
    11:00 +19°C° 0 mm 1 mps 714 mmHg 32%
    12:00 +20°C° 0 mm 1 mps 714 mmHg 30%
    13:00 +20°C° 0 mm 1 mps 714 mmHg 31%
    14:00 +20°C° 0 mm 1 mps 714 mmHg 33%
    15:00 +20°C° 0 mm 1 mps 714 mmHg 34%
    16:00 +18°C° 0 mm 1 mps 714 mmHg 37%
    17:00 +16°C° 0 mm 1 mps 713 mmHg 41%
    18:00 +14°C° 0 mm 1 mps 713 mmHg 45%
    19:00 +14°C° 0 mm 1 mps 714 mmHg 44%
    20:00 +13°C° 0 mm 1 mps 714 mmHg 44%
    21:00 +13°C° 0 mm 2 mps 714 mmHg 43%
    22:00 +13°C° 0 mm 2 mps 714 mmHg 43%
    23:00 +12°C° 0 mm 2 mps 713 mmHg 43%

    25 November, Saturday

    Time Temperature Precipitation Wind Pressure Humidity
    00:00 +12°C° 0 mm 2 mps 713 mmHg 43%
    01:00 +12°C° 0 mm 2 mps 713 mmHg 43%
    02:00 +12°C° 0 mm 2 mps 713 mmHg 44%
    03:00 +10°C° 0 mm 2 mps 713 mmHg 44%
    04:00 +10°C° 0 mm 2 mps 713 mmHg 45%
    05:00 +10°C° 0 mm 2 mps 713 mmHg 46%
    06:00 +10°C° 0 mm 2 mps 713 mmHg 47%
    07:00 +13°C° 0 mm 2 mps 714 mmHg 44%
    08:00 +14°C° 0 mm 2 mps 714 mmHg 42%
    09:00 +16°C° 0 mm 2 mps 715 mmHg 39%
    10:00 +18°C° 0 mm 2 mps 715 mmHg 36%
    11:00 +19°C° 0 mm 2 mps 715 mmHg 33%
    12:00 +20°C° 0 mm 2 mps 714 mmHg 30%
    13:00 +20°C° 0 mm 2 mps 714 mmHg 31%
    14:00 +20°C° 0 mm 2 mps 714 mmHg 32%
    15:00 +20°C° 0 mm 2 mps 714 mmHg 33%
    16:00 +19°C° 0 mm 1 mps 714 mmHg 37%
    17:00 +18°C° 0 mm 1 mps 714 mmHg 40%
    18:00 +15°C° 0 mm 1 mps 714 mmHg 43%
    19:00 +14°C° 0 mm 1 mps 714 mmHg 44%
    20:00 +14°C° 0 mm 2 mps 714 mmHg 45%
    21:00 +13°C° 0 mm 2 mps 714 mmHg 46%
    22:00 +13°C° 0 mm 2 mps 714 mmHg 47%
    23:00 +13°C° 0 mm 2 mps 714 mmHg 48%

    26 November, Sunday

    Time Temperature Precipitation Wind Pressure Humidity
    00:00 +12°C° 0 mm 2 mps 714 mmHg 48%
    01:00 +12°C° 0 mm 2 mps 714 mmHg 49%
    02:00 +12°C° 0 mm 2 mps 714 mmHg 50%
    03:00 +10°C° 0 mm 2 mps 714 mmHg 50%
    04:00 +10°C° 0 mm 2 mps 714 mmHg 51%
    05:00 +10°C° 0 mm 2 mps 714 mmHg 52%
    06:00 +10°C° 0 mm 2 mps 714 mmHg 52%
    07:00 +12°C° 0 mm 2 mps 714 mmHg 50%
    08:00 +14°C° 0 mm 2 mps 715 mmHg 48%
    09:00 +15°C° 0 mm 2 mps 715 mmHg 46%
    10:00 +17°C° 0 mm 2 mps 715 mmHg 43%
    11:00 +18°C° 0 mm 3 mps 715 mmHg 41%
    12:00 +19°C° 0 mm 3 mps 715 mmHg 38%
    13:00 +19°C° 0 mm 2 mps 715 mmHg 40%
    14:00 +19°C° 0 mm 2 mps 714 mmHg 42%
    15:00 +19°C° 0 mm 2 mps 714 mmHg 43%
    16:00 +17°C° 0 mm 2 mps 714 mmHg 48%
    17:00 +15°C° 0 mm 1 mps 714 mmHg 52%
    18:00 +14°C° 0 mm 1 mps 714 mmHg 57%
    19:00 +13°C° 0 mm 1 mps 714 mmHg 59%
    20:00 +13°C° 0 mm 1 mps 715 mmHg 60%
    21:00 +12°C° 0 mm 1 mps 715 mmHg 62%
    22:00 +12°C° 0 mm 1 mps 715 mmHg 63%
    23:00 +11°C° 0 mm 1 mps 715 mmHg 65%
    Show more